FENGYUN 1C DEB

Satellite information

Favourite Embed

Satellite Type and Status

DEBRISIN ORBIT

Key statistics

Satellite FENGYUN 1C DEB at a glance.

Uptime

9555

Days in orbit

Revolutions

≈ 14.3

Per day

Orbit

SSO

Sun Synchronous Orbit

Inclination

98.8

Latest

Satellite identification and parameters

Extended collection of information and parameters for FENGYUN 1C DEB.

Object identification

Identified? True

Debris? True

Object name: FENGYUN 1C DEB

International designator: 1999-025BHL

Object number (NORAD): 31158

Object ID (CCSDS): 31158

Country: PEOPLES REPUBLIC OF CHINA (PRC)

Current information (Y/N): Y

RCS size: SMALL

Orbital parameters

Period: 100.604 minutes

Inclination: 98.788 deg

SMA: 7165.364 km

Apoapsis: 824.653 km

Periapsis: 749.805 km

RAAN: 262.0891 deg

Eccentricy: 0.0052229

Argument of periapsis: 145.6641 deg

Mean anomaly: 214.7936 deg

Mean motion: 14.31348506 rev/day

Mean motion (dot): 0.00003604 rev/day2

B* drag term: 0.0013567 1/REarth

Two-line elements (TLE)

Creation date: July 5, 2025, 6:56 a.m.

Reference frame: TEME

Reference center: EARTH

Epoch: July 4, 2025, 10:51 a.m. UTC

TLE line 0: 0 FENGYUN 1C DEB

TLE line 1: 1 31158U 99025BHL 25185.45269981 .00003604 00000-0 13567-2 0 9995

TLE line 2: 2 31158 98.7880 262.0891 0052229 145.6641 214.7936 14.31348506945011

Live tracking on map

Real-time ground track for satellite FENGYUN 1C DEB.

In-orbit conjunctions

A list of the most updated potential collisions computed for object FENGYUN 1C DEB.

Target Orbit TCA Probability of collision Miss distance Type
IRIDIUM 44 LEO 2025-03-15 05:05:31 0.0002798018 77.0 (m) PAYLOAD

Associated space launch

Chinese polar orbiting meteorological satellite

FENGYUN 1C DEB was lifted into orbit during the mission ‘Long March 4B | Feng Yun 1C’, on board a Long March 4B space rocket.

The launch took place on May 10, 1999, 1:33 a.m. from Launch Complex 7.

For more information about the launch, click the button.

Launch to space Long March 4B | Feng Yun 1C
Long March 4B | Feng Yun 1C

Agency: N/A

Status: Launch Successful

Launch date: May 10, 1999, 1:33 a.m. UTC

Rocket: Long March 4B

Launch pad: Launch Complex 7

Location: Taiyuan Satellite Launch Center, People's Republic of China

...

Latest news about this satellite

There are no fresh news available about this satellite. Check back as we update our databases every day.


Newsletter sign-up

Weekly statistics, charts and insights to help you stay on top of the space industry.